CAPE
2546 3195 2700 2766 2544 3053 3083 2887 2303 1588 1356 1171 1058 1126 1210 1078 871 736 949 916 931 1438 1996 1757 1784 1918 1758 1734 1534 1820 2156 2285 2283 2820 3210 3432 3339 2906 3154 3345 3354 3366 3148 3176 2422 2071 1887 2038 2142 2097 1978 1958 1898 1776 1607 1985 2185 2069 1978 1848 1934 2523 2821 2992 3058 3109 3176 2272 2307 1810 1783 2498 2032 2689 2766 2894 2514 3310 2563 2800 2723 3108 4088 5012 4476
2422 2560 2911 2828 2438 2810 2724 2946 2692 1952 1406 1148 1208 920 1222 1380 1186 973 702 1103 1067 1065 1736 1753 1680 1753 1658 1684 1653 1404 2142 2391 1897 2190 2837 3141 3203 2757 2969 3728 3965 3338 3116 3166 3169 2770 2397 2503 2461 2361 2285 1998 2059 1943 1648 996 1659 1610 1736 1582 1595 1615 2224 2885 3042 3304 3270 3049 2858 2596 2150 2496 2933 3093 3302 3118 3104 2943 2883 2924 2640 2286 2229 1889 5107
1689 2740 3016 2947 2896 2674 2570 2691 2748 2304 1550 1093 981 810 1135 1547 1385 1136 805 788 1153 1143 1289 1443 1525 1769 1711 1707 1901 1821 2116 2309 2392 2276 2381 2921 3188 2831 2353 2420 3031 3061 3192 3154 3085 3125 2740 2684 2647 2478 2086 2074 2064 2022 1738 1318 1023 790 857 1193 1234 1133 1862 2867 3409 3285 2908 3102 3295 3025 2447 2845 2861 2679 3027 3161 3296 3400 3851 3780 2768 1974 2239 1902 2322
1825 2284 2640 2851 2866 2762 2933 2192 2057 1970 1617 1157 897 802 704 1129 1526 1304 932 492 700 1258 1098 1106 1196 1757 1894 1818 1900 2007 2084 2218 2424 2406 2375 2520 2882 3106 2851 2786 2524 2536 2657 2518 2452 2483 2642 2792 2570 2187 1912 1966 2172 2160 1778 1626 1517 1604 1474 1507 1666 1731 1806 2079 3398 3951 3560 3193 3516 3089 3203 3497 3705 2943 3091 3145 2947 3010 3091 2867 2768 2875 2833 2506 1841
1068 1564 1970 2618 2536 2796 2676 2292 1658 1687 1418 913 796 723 551 347 962 1231 1037 424 252 809 1041 1180 1506 1681 1721 1923 1975 2098 2171 2303 2506 2304 2176 2218 2559 2638 2786 2736 2747 2756 2710 2505 2306 2314 2351 2420 2501 2448 2265 2057 2314 2467 2440 2164 1863 1570 1589 1706 1905 2000 2198 2384 2882 3513 3999 4030 4021 4072 3874 4001 3990 3891 3492 3118 2858 2424 2358 2977 3181 3285 3225 3338 2776
1547 1565 2115 2536 2796 2714 2749 2351 1750 1644 1409 1097 661 432 450 234 241 934 1057 624 193 208 873 945 948 1386 1663 1979 1999 2138 2319 2474 2590 2510 2084 1968 2150 2262 2174 2211 2155 2230 2398 2399 2410 2303 2204 2406 2336 2284 2243 2202 2352 2548 2642 2331 2167 2004 1948 1926 1938 2271 2742 2869 3248 3647 3852 4302 4340 3899 3781 3578 4143 4310 3851 3092 2862 2639 2153 1992 2070 2774 4112 4250 3605
1694 1890 2287 1513 2104 2114 2407 2562 2123 1507 1488 1306 842 420 367 332 126 168 677 808 374 122 205 923 926 973 1570 1844 1602 1699 2272 2386 2846 2797 2453 1751 1634 1817 1404 1421 1520 1552 1882 1876 1885 2040 2021 2095 2328 2261 2271 2312 2419 2580 2568 2489 2512 2831 2617 2498 2448 2587 2862 3201 3611 3854 4055 4128 4272 4220 4014 3592 3408 3880 4240 3896 3892 4196 4063 3505 3418 3355 3344 3407 4081
1416 1936 1036 1545 1927 1904 2350 2570 2582 2120 1551 1810 1483 831 384 246 331 168 258 589 671 300 87 237 972 927 1042 1510 1434 1171 1758 2203 2419 2689 2699 2072 1488 1274 1411 1132 1109 1312 1275 1433 1411 1304 1526 1731 1780 2018 2120 2234 2255 2498 2588 2590 2971 3047 3038 3052 3118 2994 3094 3141 3152 3380 3650 3706 3977 3700 3302 3900 3797 3672 2919 2844 3102 3913 4342 4081 3965 3794 3640 3832 3193
2266 1813 738 1362 2015 2469 2403 2316 2553 2435 2153 2041 1913 1543 1000 806 785 572 318 253 461 504 301 114 366 1074 1058 1159 1275 916 817 1544 2012 2344 2719 2732 1846 1137 1243 1402 1119 981 955 924 1093 1096 1044 1040 1368 1496 2289 2778 2413 2627 2333 2336 2597 2974 3154 3342 3624 3512 3653 3468 3416 3889 3731 3756 3756 3529 3054 3210 3355 3837 3643 3324 3210 3532 3297 2771 2718 2433 2668 2833 3507
2458 2188 1647 1859 1680 2316 2870 2712 2730 2630 2402 2220 2356 2294 1923 1364 593 679 503 451 564 663 586 346 203 576 1144 1289 1227 999 506 652 1732 1597 2055 2588 2442 1247 1047 1493 1568 1149 1039 1004 801 707 750 751 803 1671 2154 3100 2902 2636 2436 2761 2941 3260 3872 3441 3542 3788 3855 3994 3978 3766 3753 3727 3316 3083 2876 2756 2790 3280 3265 2945 2420 2513 2316 2930 3129 3171 2920 2659 3515
1994 2013 2213 1992 2389 2368 2603 2708 2626 2622 2690 2458 2341 2506 2402 2009 1531 1786 1256 912 1164 1375 1211 547 301 262 575 1182 1454 1284 813 384 744 1378 1501 1904 2154 1928 1002 1112 1601 1624 1191 1185 961 552 562 603 589 1963 3176 3616 3602 2495 2372 2249 2549 2416 2057 2554 3622 5270 3889 3889 3800 3670 3375 3257 3040 2864 2616 2654 2288 2025 1725 1216 908 673 755 1638 2230 2549 2905 3166 3164
1295 1609 1625 1775 1958 1834 1980 2763 3088 2713 2639 2738 2579 2580 2502 2456 2328 1978 1682 1410 2119 1319 1028 1075 1257 519 267 413 899 1430 1309 711 57 889 1268 1498 1800 2132 1192 634 668 1251 1446 1092 1049 886 560 363 351 389 588 1217 1844 3705 2759 2368 2385 2445 2434 2247 2147 2782 3472 4601 4843 3863 3461 3065 2964 2832 2516 2534 2561 2682 2317 1796 1812 1456 1654 2146 2980 3034 3289 3426 3312
1576 1459 1384 1206 1486 1877 1524 2070 2650 2863 2868 2765 2881 2717 2748 2619 2447 2184 1780 1835 1857 2243 2366 1615 1552 1487 943 739 401 624 1293 1068 105 0 1092 1339 1498 1615 764 570 294 355 818 1198 1046 906 765 556 254 138 149 1467 2424 2116 4103 3635 2386 2380 2236 2071 1764 1469 1788 3044 3402 3603 4928 4653 3711 3601 3345 3192 3088 3036 2563 2444 2313 2559 3190 3065 3163 3069 3440 3374 3359
735 1287 1321 1494 1495 1664 1807 1656 1838 2568 2850 2688 2684 2485 2587 2754 2503 2236 2012 1921 2077 2163 2088 2350 2165 2455 1952 1535 1374 760 976 1164 1032 512 522 1205 1412 1610 1215 187 268 354 408 520 702 919 920 734 600 496 263 993 2426 1975 2913 4062 4198 3288 2662 2565 2701 2323 1627 1175 1371 2237 2571 2906 3550 3393 3500 3637 3931 3941 3920 3728 3799 4022 3771 3038 3052 2925 3129 3508 3555
663 740 751 1120 1366 1410 1228 1370 1400 1532 1635 2067 2476 2550 2446 2388 2440 2475 1758 1922 1986 2243 2334 2267 2415 2447 2227 2052 1781 1323 1105 1030 1162 1139 1034 997 1306 1349 1655 464 35 75 281 402 1044 750 1511 1027 968 732 1130 1288 670 2345 2312 3156 4449 4738 4135 3288 3054 2881 2764 2504 2168 1763 1764 1871 2278 2534 2936 3422 3753 3872 3989 4302 4496 4715 4569 4431 4256 4360 4238 4353 4274
382 578 585 647 656 640 852 1084 1439 1509 1476 1404 1677 2147 1977 2449 2420 2466 2198 1658 1682 1906 2603 2333 2337 2486 2471 2334 2018 1843 1397 967 966 1176 1220 1186 1091 1153 2359 1594 584 153 58 343 514 1266 1148 1158 1555 1540 1448 2236 1725 1033 2291 3197 3590 4698 5127 4672 3609 2821 2490 2585 2349 1910 1718 1583 1732 1586 1421 1466 1648 3228 5069 5342 4614 5180 4877 4718 4425 4546 4583 4548 4328
0 157 370 504 581 603 624 671 974 1313 1505 1686 1566 1273 1264 1466 1737 1859 2326 2117 1956 2007 1680 1411 2627 2677 2452 2544 2490 2310 1977 1683 1121 1049 1129 1173 1173 1388 2351 2275 1723 1300 776 807 663 464 657 1284 2615 1440 1600 2635 2200 1466 1268 2593 3382 3646 4126 4602 4570 3787 3190 2516 2418 2371 1942 1638 1647 1817 1727 1575 1508 1486 1695 1991 3304 3922 4244 3926 3520 3090 3113 3050 2807
0 0 0 46 278 591 668 680 692 862 904 1210 1140 1277 1497 1157 1119 1225 1496 1804 1731 1718 1648 906 1238 1603 1798 1621 1594 2681 2275 2118 1692 1446 1208 1051 1094 1821 2242 2346 2250 2001 1820 1631 1098 720 1019 1126 2044 1784 1646 1807 1780 1919 1613 1732 3339 2994 3196 3400 3443 3375 3245 2718 1945 2597 2363 2254 1821 1786 1821 1915 1913 1858 1789 1894 2078 2333 3389 3255 2200 1418 1137 1368 1609
0 0 0 0 0 154 413 645 715 626 728 663 669 1110 1121 1512 1368 1331 1578 1644 2068 1953 2063 1796 1631 2059 1968 1810 1816 1615 2210 2277 1914 1819 1684 1511 1284 1950 2435 2261 2218 2307 2253 2176 2004 1794 1835 1804 2000 2444 2260 2460 1911 1884 1930 2281 2990 2678 2688 2550 2495 2619 2384 2242 2264 1841 2652 2600 2539 2355 2007 1812 1877 2260 2758 2213 2142 2029 2333 2699 2256 1819 1575 1425 1504
0 0 0 0 1 4 2 230 290 480 564 563 715 1257 1498 1113 1251 1417 1342 1494 1593 1906 2228 1957 1816 1878 1874 1530 1346 1907 1565 1782 1731 1814 1892 1848 1669 1962 2392 2196 2116 2209 2446 2437 2504 2466 2174 2027 2529 1426 1772 2133 2284 2060 1942 2026 2780 2922 2724 2408 2073 1928 1446 1172 2054 2074 3130 3726 3805 3466 3279 3156 2890 2764 2961 3017 2742 2261 2128 2279 2344 2145 1907 1837 1760
0 0 0 0 0 1 3 0 40 248 347 555 604 688 1173 788 838 1164 1430 1482 1865 2046 1736 2075 1928 1900 1848 2169 2340 2134 2074 1962 1565 1675 1841 2089 1965 1862 2371 2326 2164 2239 2480 2670 2567 2586 2638 2430 2079 2077 1626 1685 2069 2354 2251 2018 2176 2954 2998 2999 2658 2170 1790 1301 1866 2056 3971 3720 3804 3012 3722 3932 3723 3669 3508 3368 3110 2956 2696 2037 2059 1863 1717 1554 1349
0 0 0 0 0 0 4 12 2 1 73 151 613 579 670 1041 857 740 833 1141 1506 1648 1867 1926 1967 2140 2204 2147 2589 2437 2432 1354 1810 1370 1496 1888 2235 2108 2021 2436 2472 2458 2632 2875 2957 2881 2724 2817 2781 2316 1956 1680 1599 1901 2187 2198 2046 2218 3226 2613 2657 2223 3504 2550 2068 2012 2493 2451 2184 2227 2425 2505 2716 3265 3260 3114 2903 2740 2550 2767 2267 1817 1600 1461 1374
0 0 0 0 0 0 0 3 8 7 39 74 102 338 437 1065 1013 938 958 926 1035 1334 1956 2101 2038 1971 2130 2849 2761 2504 2796 2998 1459 1542 1609 1535 1656 2005 2188 2225 2036 2996 2539 2783 3071 3381 3025 2980 2941 2720 2310 2038 1912 1725 1695 1872 1988 1985 2136 2326 2265 2289 2248 2674 2679 2590 2937 2616 2401 2642 2682 2678 2450 2172 1921 1910 1960 2204 1724 1540 2736 2516 2187 1773 1957
0 0 0 0 0 0 0 0 0 35 42 58 97 272 621 834 950 691 834 951 1044 1338 1656 1939 2043 1995 2103 2216 2537 2904 2897 2352 1795 1555 1520 1635 1521 1556 1743 1948 2074 1972 2055 2071 2547 2837 3307 3064 3325 2717 2533 2443 2246 2089 1996 1808 1642 1627 1823 1925 1993 1935 1910 2290 2345 2539 2862 2688 2804 2674 2498 2370 2176 2059 2060 2107 1920 2335 2223 1514 1517 1458 2818 2603 2936
0 0 0 0 0 0 0 0 0 6 21 22 60 157 416 722 919 893 719 984 1351 1298 1411 1748 2028 2110 2367 2398 2290 2205 2672 2536 2550 1650 1558 1610 1629 1659 1669 1698 1953 2113 2138 2093 2154 2304 2531 2424 2428 2344 2326 2301 2299 2366 2292 2185 2060 1845 1633 1479 1501 1468 1625 1931 1746 1928 2250 2454 2549 2554 2464 2341 2470 2394 2302 2904 3070 2524 3189 2582 2254 2529 2705 3927 3603
0 0 0 0 0 0 0 0 0 0 0 4 32 87 195 400 658 976 1048 1390 1654 1626 1768 2021 2034 2267 2312 1907 2145 2216 2155 2033 2151 2220 1838 1790 1735 1653 1590 1513 1533 1712 1829 1915 2102 1842 1865 2049 2347 2301 2193 2112 2091 2089 2097 2203 2128 1978 1807 1601 1358 1173 1450 1663 1772 1757 1964 2058 2219 2394 2547 2564 2472 2492 3065 3266 2771 3058 3109 3294 3100 3362 2902 2730 3296
0 0 1 0 0 0 0 0 0 0 0 4 22 32 50 146 399 584 694 948 1201 1382 1697 1736 1802 1746 1805 2118 2179 2125 1927 1998 1970 1898 2451 1997 1379 1569 1596 1607 1649 1704 1572 1633 1789 2028 1981 2046 2193 2031 2095 2036 2067 2052 2028 1958 1878 1888 1769 1617 1454 1285 1092 1495 1576 1824 1984 1996 2066 2363 2574 2664 2505 2778 3444 3702 3803 3887 3331 3759 3309 3232 3282 3558 4113
0 1 0 0 0 0 0 0 0 0 0 0 0 4 26 47 47 304 616 404 436 745 780 986 1329 1601 1720 1754 1803 1920 2121 2101 1962 1850 2064 2472 2430 1739 1688 1649 1551 1382 1445 1547 1501 1425 1237 1416 1632 2136 2194 2120 2175 2287 2228 2030 1850 1679 1530 1548 1485 1302 1114 1081 1294 1692 1932 2132 2268 2213 2367 2914 2790 2444 2528 2682 2803 3256 3655 3675 3487 3344 3224 3695 4016
1 1 2 0 0 0 0 0 0 0 0 0 0 0 2 11 20 16 30 75 49 419 843 838 1079 1402 1564 1596 1629 1660 1764 1742 1822 1672 1540 1486 1440 1580 1830 1996 1922 1673 1604 1657 1563 1450 1480 1490 1202 1482 2303 2341 2352 2116 2376 2106 1975 1815 1667 1780 1347 1295 1338 1356 1368 1482 1746 1976 2234 2551 2499 2521 2518 2539 2538 2667 3518 3315 4083 4559 4669 4309 4470 3828 3315
0 2 5 4 0 0 1 0 0 0 0 0 0 0 0 0 5 10 13 39 1 0 362 780 842 890 1129 1310 1334 1473 1605 1648 1417 1377 1515 1639 1802 1988 1993 1828 1908 1979 1882 1889 1956 1960 1976 1832 1740 1735 1896 2370 2464 2438 2335 2080 1955 1648 1539 1500 1622 1883 1445 1436 1474 1514 1536 1699 1976 2177 2498 2644 2750 2658 2632 2739 3408 3248 3678 3628 4550 4648 4521 4085 3824
3 0 4 5 6 1 1 2 2 0 0 0 0 0 0 0 0 0 0 0 0 0 0 232 552 710 757 855 1005 1167 1356 1459 1272 1115 1213 1525 1748 2010 2179 2108 1848 1818 1961 2096 2104 1807 1556 1571 1867 1881 1929 2348 2355 2451 2378 2359 2312 1974 1668 1703 1921 1667 1608 1572 1591 1435 1386 1542 1673 1981 2186 2476 2639 2817 2831 2870 2819 3037 3090 3544 3618 4312 4025 3789 3848
6 0 0 7 9 7 6 7 7 5 1 1 0 0 0 0 0 9 0 0 0 0 0 0 102 336 512 706 840 1008 1144 1261 1135 826 772 1100 1430 1619 1889 1988 2166 2163 2090 2175 2155 2165 1994 1832 1762 1781 1575 1554 1703 2075 2213 2391 2199 2434 1718 1924 1929 1972 1737 1922 1844 1916 1706 1690 1766 1875 1998 2160 2356 2567 2704 2722 2881 2903 2974 2974 3144 3392 3476 3530 3636
21 18 10 6 7 5 3 4 5 2 2 0 0 0 0 0 0 0 511 0 0 0 0 0 0 0 230 444 595 768 827 887 772 509 626 836 1120 1394 1769 2104 2094 1912 1896 2082 2223 2238 2215 2193 2147 1965 1731 1833 1730 1994 2462 2434 2482 2296 2094 2271 1790 1637 2135 2368 1995 2328 2042 2175 2113 1994 1900 1991 2092 2258 2330 2504 2632 2573 2568 2663 2730 2953 3260 3508 3508
22 16 19 16 7 5 7 5 4 1 2 2 1 0 0 0 0 0 0 0 7 10 0 1 0 0 0 150 435 466 476 417 392 225 318 470 902 1374 1888 2157 2294 2319 2190 2096 1998 2091 2152 2224 2233 2069 1937 1931 1696 1919 2465 2814 2722 2417 2408 2706 2679 2501 2626 3137 3654 2882 2286 2094 2210 2044 2263 2268 2281 2232 2345 2386 2432 2475 2510 2407 2487 2583 2702 2812 3062
12 16 13 11 8 6 5 4 2 4 2 3 3 2 0 0 0 0 0 0 0 0 0 76 125 0 0 0 7 237 377 196 464 675 798 854 856 829 1352 1989 2469 2544 2440 2314 2239 2213 2190 2191 2263 2570 2572 2777 2706 2482 3027 2706 3470 2539 2489 2430 2503 2485 2790 2759 2642 2864 2625 2341 2232 2431 2518 2508 2594 2397 2464 2393 2444 2520 2600 2643 2557 2538 2658 2724 2754
8 11 10 10 8 13 13 7 5 4 7 7 7 3 0 0 0 0 0 0 0 2 2 2 1 0 1 0 0 0 88 323 144 438 524 576 734 907 1009 1357 1610 2281 2640 2714 2604 2600 2520 2486 2509 2652 3010 2732 2943 3071 3080 3118 3263 3178 3016 2429 2347 2624 2698 2656 2721 3078 3456 2897 2670 2534 2498 2742 2322 2489 2670 2507 2590 2306 1949 2304 2435 2500 2602 2603 2719
10 7 6 9 12 16 12 7 5 4 2 2 3 5 2 2 0 0 0 0 0 0 0 2 4 3 4 15 4 0 0 112 260 0 0 178 561 580 578 840 1437 1939 2243 2527 2802 2828 2764 2773 2717 2616 2771 2953 2989 3131 3154 3208 3363 3409 3073 3368 3088 3360 2709 2631 2525 2955 3274 2991 2954 3159 3278 2995 2890 2770 2279 2406 2164 2349 2346 2451 2648 2355 2359 2286 2330
3 6 7 12 10 8 4 2 2 1 4 8 11 10 6 3 0 0 0 0 0 0 0 0 0 1 3 18 6 4 0 0 121 271 0 0 338 632 788 845 805 1117 2008 2470 2598 2690 2702 2561 2622 2817 2948 2910 2925 3050 3133 3224 3250 2858 2915 3664 4017 4044 3251 3424 3018 3657 3981 3423 3235 3328 3339 3178 3165 3206 2669 2453 2818 2714 2567 2318 2253 2445 2090 2146 2113
14 7 5 2 1 4 2 3 4 4 8 10 13 11 5 2 0 0 0 0 0 0 0 0 0 0 1 5 7 2 0 1 0 168 85 0 73 312 611 730 830 1018 1366 1724 2166 2555 2676 2802 2777 2772 2855 2953 2768 2770 3047 3094 3240 3426 3267 3290 3321 3154 3004 2980 3462 3751 3446 3501 3428 3353 3271 3199 3201 3031 2905 2853 2868 2790 2676 2653 2626 2670 2524 2351 2488
8 9 6 4 0 0 3 7 5 7 10 10 10 12 10 6 3 1 1 0 0 0 0 0 0 2 1 2 0 0 3 2 2 0 0 0 0 0 12 487 1047 1474 1477 1717 2010 2252 2434 2700 3022 3063 3179 3038 3089 3106 3114 3098 3108 3250 3545 3589 3161 3610 3614 3208 2994 3445 3587 3587 3576 3084 2968 3362 3268 2765 2802 3166 3195 3052 3004 2493 2326 2532 2480 2261 2161
9 6 6 1 1 2 3 3 6 7 13 15 16 14 13 13 9 8 2 0 0 0 0 0 0 1 2 0 0 0 0 0 0 2 0 0 0 0 2 45 274 464 896 1176 1474 1818 2191 2388 2619 2914 3067 3280 3195 3020 3147 3247 3029 2973 3159 3109 2927 3309 3582 3399 3044 3125 3383 3420 3336 3147 3323 3528 3536 3494 3170 3067 2716 2897 3044 2710 2422 2273 2156 2018 2218
8 10 9 10 10 10 9 9 7 9 12 15 15 15 12 10 13 11 6 5 2 1 0 0 0 2 1 0 0 0 0 0 3 5 1 3 0 0 0 0 0 0 18 500 834 986 1053 1141 1328 2057 2488 2823 3006 3258 3592 2993 2932 2900 3168 2832 2722 3681 2913 2976 2969 3337 3537 3116 3402 3051 3761 3500 3598 3601 3328 2795 2847 3136 2805 2928 2828 2379 2561 2440 1969
13 14 17 20 17 14 11 7 7 8 11 14 13 13 8 11 12 12 9 8 4 2 2 1 2 1 1 0 0 0 1 4 2 3 1 2 1 0 0 0 0 0 72 483 796 877 907 1026 1067 1227 1394 1565 1716 1900 2155 2359 2479 2655 2780 2608 2565 2740 3025 2995 3002 3084 3028 3418 3105 3049 2814 3256 2937 3143 3316 3106 3125 2769 2792 2897 2836 2640 2494 2279 2134
14 14 15 15 15 16 14 10 9 12 15 17 18 11 10 8 10 11 11 11 7 4 3 1 0 1 2 0 0 1 2 2 3 2 3 1 1 0 0 0 0 0 0 154 426 626 786 941 1138 1236 1292 1340 1379 1468 1647 1846 2054 2313 2518 2680 2720 2705 2681 2668 2869 3008 3080 3083 3263 3427 3176 3218 2747 3200 2751 2944 3139 2859 3023 2864 2921 2755 2582 2422 2270
8 10 12 10 10 11 12 16 14 14 17 17 14 13 13 11 7 7 8 8 8 6 3 1 2 0 0 1 0 1 2 2 2 2 1 1 1 0 0 0 0 0 0 1 97 287 436 680 907 1074 1213 1324 1338 1312 1274 1323 1499 1679 1814 1925 2096 2340 2516 2703 2778 2702 2706 2736 2617 2612 2809 2678 2835 2588 2418 2340 2461 3054 3122 2801 2779 2693 2501 2527 2463
14 14 13 14 14 16 15 13 16 14 17 12 10 12 11 9 9 10 4 4 5 5 3 3 1 0 0 0 0 2 2 2 2 1 2 2 1 0 0 0 1 1 0 0 0 5 78 283 562 741 841 994 1150 1242 1341 1340 1307 1293 1298 1382 1414 1468 1649 1937 2189 2428 2529 2518 2516 2508 2465 2366 2316 2276 2199 2351 2357 2535 2899 2808 2622 2640 2806 2529 2342
13 13 14 15 13 14 20 17 15 15 16 10 10 9 4 6 6 5 4 4 4 4 2 2 2 0 0 0 0 1 1 2 3 1 1 1 1 1 0 0 0 0 0 0 0 0 1 1 91 400 627 740 843 947 1055 1214 1277 1208 1195 1226 1262 1288 1349 1443 1518 1568 1811 2111 2324 2380 2351 2280 2187 2080 1932 1944 1991 2019 2058 2095 2065 2154 2757 2548 2463
9 12 12 18 15 15 14 14 16 15 12 7 6 2 3 6 4 4 3 3 3 3 2 0 1 0 1 1 0 1 2 2 2 3 1 2 2 1 1 2 1 1 0 0 0 0 1 1 2 2 36 195 332 489 591 633 638 770 936 1204 1214 1215 1243 1342 1406 1446 1523 1662 1931 2066 2046 2046 1998 1922 1769 1812 1724 1749 1706 1678 1660 1660 1740 1752 2004
12 8 12 10 12 12 14 13 14 6 6 6 5 3 4 5 6 4 4 3 3 2 0 1 0 0 1 1 2 2 2 3 1 1 1 1 2 2 2 2 3 1 0 0 0 1 0 1 1 1 84 131 164 160 177 233 320 387 423 466 491 580 720 917 1097 1077 1109 1042 1080 1256 1310 1418 1450 1539 1718 1874 1807 1691 1528 1444 1488 1523 1525 1681 1842
13 14 12 12 13 12 13 12 9 4 7 5 2 2 3 3 3 4 3 3 2 2 0 0 0 0 0 1 1 1 2 2 2 2 2 1 2 2 1 1 3 0 0 0 1 2 1 0 0 17 119 147 180 225 263 302 347 369 388 416 444 488 534 578 655 733 781 876 1023 1235 1345 1364 1452 1522 1591 1582 1528 1484 1474 1502 1506 1466 1483 1550 1550
17 15 16 12 11 12 11 10 5 4 4 3 2 5 3 4 4 4 3 2 3 2 2 1 2 1 1 1 3 2 2 4 3 3 2 2 2 3 2 2 1 0 1 2 2 0 0 0 0 1 37 114 148 195 249 309 364 404 451 506 580 621 648 660 690 740 828 931 950 1072 1278 1389 1424 1469 1494 1534 1582 1594 1626 1614 1672 1604 1470 1476 1552
Wind_Speed
14 15 15 13 13 13 12 11 10 10 8 8 8 9 9 9 9 8 9 7 7 6 5 4 4 4 2 3 2 4 4 3 3 4 4 4 3 4 5 6 3 4 4 4 3 4 5 4 3 3 3 3 4 3 3 5 5 4 5 6 5 6 7 7 7 8 8 10 11 8 12 11 10 13 8 9 9 12 10 10 9 8 12 14 17
15 16 17 16 14 14 13 13 12 11 9 10 9 9 10 10 10 10 9 8 6 6 6 5 4 4 3 4 3 2 5 4 3 4 4 4 3 5 5 6 5 4 5 4 4 5 5 4 3 3 4 3 3 3 3 3 5 4 5 4 4 6 8 7 7 9 8 9 8 11 9 8 8 10 10 9 9 10 10 10 9 8 11 12 15
16 17 17 18 16 16 14 14 13 11 10 11 9 9 10 10 11 10 10 9 8 6 7 5 6 5 4 5 4 3 4 5 4 3 4 4 4 3 5 6 5 5 5 4 4 5 4 4 3 4 5 5 4 3 3 3 3 4 5 5 5 6 9 9 8 7 8 9 9 6 7 12 9 9 8 8 8 8 8 8 10 9 12 9 7
19 16 16 18 17 17 16 14 13 12 11 11 11 10 10 11 11 11 10 9 9 8 6 6 6 7 5 5 5 4 4 4 5 5 4 5 5 4 4 6 6 5 5 4 4 5 4 3 3 4 4 5 5 5 4 4 5 6 6 6 7 6 8 8 9 8 8 7 8 8 8 8 8 6 7 8 7 8 8 9 9 9 11 12 6
22 18 16 17 18 17 16 15 14 13 12 12 12 11 10 11 12 11 11 9 9 10 8 7 8 8 6 5 5 5 5 6 6 6 6 6 5 5 5 6 6 6 5 5 4 5 4 3 3 3 4 4 6 5 5 5 5 6 6 6 6 6 6 6 6 7 6 6 6 7 7 6 6 6 7 7 8 9 9 10 10 10 11 12 7
25 23 19 18 18 17 16 16 14 14 13 12 12 12 11 11 13 13 11 10 10 9 10 9 9 8 7 6 6 6 6 6 7 7 7 8 7 7 6 6 6 6 5 5 5 4 4 3 3 3 4 4 4 5 4 5 6 5 6 7 7 7 6 6 6 6 5 5 5 6 6 5 6 8 9 8 7 8 9 10 10 12 14 12 11
20 15 24 16 17 18 16 16 17 16 16 14 13 13 12 12 12 14 14 12 11 9 9 10 10 9 9 7 6 7 7 7 8 8 7 7 8 8 6 7 7 7 6 5 5 5 4 4 4 3 3 3 4 4 5 4 6 6 7 7 7 8 8 7 7 6 6 5 5 5 5 5 6 6 8 9 9 9 7 8 10 12 11 10 11
30 23 20 22 23 19 18 17 17 18 18 19 15 13 13 12 14 14 15 14 11 10 nan 10 12 11 10 8 7 7 9 8 9 9 9 8 8 8 7 6 7 8 7 6 6 6 6 6 4 4 3 3 3 3 3 5 6 5 7 7 7 7 6 7 7 7 6 5 5 5 5 6 7 7 7 5 6 7 6 7 9 10 9 9 9
32 28 24 22 22 20 19 17 19 19 19 20 18 16 15 15 15 15 14 13 14 12 11 10 12 12 11 10 9 8 9 10 10 11 11 10 9 9 9 7 6 7 7 7 7 7 7 8 7 5 6 6 5 3 3 4 5 6 6 7 7 7 7 7 7 7 6 5 5 5 4 4 4 5 4 4 4 5 6 8 10 10 9 10 11
32 32 30 25 19 21 22 20 20 20 20 19 20 19 17 16 15 14 14 13 15 16 14 12 11 12 12 12 11 10 9 10 13 14 14 13 12 10 10 9 8 7 8 7 7 8 7 7 8 9 9 11 10 8 4 5 7 7 8 8 7 7 7 6 6 7 6 5 4 4 3 3 4 6 5 4 5 7 8 10 11 11 11 11 12
34 32 32 33 28 21 19 18 19 19 20 20 20 20 18 18 17 18 17 15 15 17 16 13 12 11 12 13 12 12 11 11 17 19 17 15 13 13 11 11 11 8 8 8 7 7 8 8 7 10 13 14 14 13 11 8 7 5 6 9 12 10 8 7 7 7 7 6 6 5 4 5 5 5 5 4 4 5 7 10 10 10 9 8 9
40 39 39 37 34 28 20 17 16 17 18 19 19 20 20 19 18 18 17 16 18 15 14 14 14 12 12 12 13 13 12 12 nan 22 21 19 15 13 13 11 11 11 9 9 9 8 7 7 8 8 10 10 11 15 13 12 10 7 6 5 5 5 9 11 11 9 7 7 7 6 6 7 8 8 7 6 5 6 8 8 8 8 7 7 9
41 40 41 37 33 31 25 17 15 14 16 17 18 20 20 20 18 17 16 18 18 19 16 15 15 14 13 12 11 12 12 14 20 nan 23 22 19 15 13 12 11 10 10 10 9 9 10 9 7 7 8 16 14 13 15 14 12 10 8 7 4 4 4 4 7 10 11 8 7 6 7 8 7 7 7 6 7 5 6 6 7 7 8 9 10
45 42 38 33 30 31 30 24 19 17 16 16 17 18 18 18 18 19 20 20 20 19 16 16 17 17 16 14 13 12 12 17 21 23 23 23 21 19 13 11 10 10 10 9 9 10 10 9 10 9 7 10 14 13 14 14 15 14 12 11 10 7 6 5 2 3 6 6 6 6 8 8 7 8 7 7 6 6 7 7 8 8 9 10 10
45 45 42 37 36 34 34 32 29 24 19 17 18 18 18 18 18 20 21 22 21 20 19 18 19 18 17 16 15 13 13 17 23 23 24 24 22 21 15 11 nan nan 9 8 9 8 10 10 10 10 12 10 10 15 13 14 14 14 12 10 10 9 9 9 10 9 8 7 6 5 6 7 7 7 7 8 8 9 9 9 9 10 9 9 10
42 45 43 41 40 40 37 31 27 26 27 25 22 21 21 23 22 25 25 25 26 21 22 21 20 18 18 18 18 16 15 18 25 23 25 26 26 24 19 13 9 8 nan 10 9 10 9 9 10 10 12 13 12 12 16 15 13 12 12 12 11 10 9 10 12 12 10 9 7 7 7 8 9 9 10 11 12 12 13 13 14 13 12 12 12
nan 43 44 42 41 41 40 37 33 31 30 29 31 34 36 34 32 32 34 35 33 32 30 28 29 23 20 20 20 19 19 22 29 27 27 29 31 27 22 18 14 10 10 11 11 9 9 10 11 10 10 12 14 17 17 18 13 11 11 11 11 10 10 12 18 17 15 12 10 10 8 7 7 12 14 17 16 15 14 14 15 15 13 12 12
nan nan nan nan 42 42 41 39 39 38 34 36 41 41 35 33 31 32 32 33 29 26 33 32 33 34 30 24 21 21 21 25 31 29 29 33 32 29 26 22 17 13 12 12 12 12 11 10 12 11 9 10 14 19 20 21 16 12 11 11 11 9 10 11 14 20 20 20 18 15 14 13 11 10 13 16 20 20 19 16 16 16 13 13 14
nan nan nan nan nan 40 39 39 41 41 42 42 40 40 35 34 35 35 33 30 25 23 25 27 27 25 29 29 35 29 22 27 32 29 30 32 30 30 28 24 19 15 14 13 13 14 14 14 12 12 11 11 13 19 20 21 17 15 13 12 10 10 12 14 13 14 19 18 15 14 11 12 14 16 16 16 21 24 20 17 17 18 17 15 15
nan nan nan nan nan nan nan 39 39 42 44 46 47 42 41 42 42 41 38 31 26 25 24 25 24 25 28 28 28 31 34 36 38 28 30 30 28 30 29 24 18 15 15 15 15 14 14 14 14 13 10 12 14 19 20 21 18 16 15 12 11 11 14 15 15 15 16 19 19 19 17 17 16 17 17 18 21 25 23 21 20 20 20 18 18
nan nan nan nan nan nan nan nan nan 45 46 49 48 45 43 44 42 36 32 31 27 25 24 24 22 23 25 28 31 29 32 37 35 32 26 26 27 28 29 23 19 17 16 16 15 14 15 14 11 15 14 12 14 19 19 19 18 17 15 13 12 14 19 16 16 17 18 16 16 17 20 20 19 19 21 21 23 25 27 26 24 23 22 20 19
nan nan nan nan nan nan nan nan nan nan nan 48 47 46 44 42 38 35 34 34 31 27 25 25 24 24 26 26 29 27 28 30 32 35 34 27 24 24 27 23 20 19 17 17 16 15 14 14 13 13 16 14 14 17 18 19 18 17 14 13 12 16 18 17 16 16 17 17 17 16 16 18 19 22 23 23 25 26 27 28 28 26 25 23 22
nan nan nan nan nan nan nan nan nan nan nan nan 45 43 42 41 38 36 35 35 33 29 27 27 26 25 25 26 26 27 29 33 28 31 33 33 31 26 22 22 22 21 18 17 16 16 16 14 14 13 17 16 16 16 17 18 19 16 13 11 13 16 19 16 15 15 14 13 14 14 16 17 18 19 21 22 24 25 24 24 29 29 27 26 25
nan nan nan nan nan nan nan nan nan nan nan nan nan 44 42 43 41 39 37 35 33 31 31 30 28 26 25 25 24 27 31 31 30 24 27 28 29 30 27 23 24 21 19 19 19 17 17 16 17 15 18 17 17 18 18 19 16 14 13 11 12 16 17 14 14 13 13 12 11 12 13 16 17 18 20 22 22 25 24 23 22 25 29 26 27
nan nan nan nan nan nan nan nan nan nan nan nan nan 49 46 45 45 45 41 37 33 31 31 32 29 29 28 28 28 28 32 34 33 30 23 23 26 29 26 25 22 19 23 18 21 20 21 18 17 14 18 18 18 19 19 17 16 14 14 14 15 16 14 12 11 12 12 12 13 12 12 14 16 17 20 21 22 23 25 23 24 23 25 29 27
nan nan nan nan nan nan nan nan nan nan nan nan nan nan 51 49 48 49 48 43 37 34 34 34 33 33 31 29 30 31 31 32 34 37 37 31 30 28 27 25 24 22 24 21 21 30 31 33 35 31 25 23 24 24 23 18 14 13 12 14 16 14 13 12 12 12 11 12 13 13 14 15 16 18 20 21 20 21 23 24 23 24 25 25 25
nan nan nan nan nan nan nan nan nan nan nan nan nan nan nan 54 52 50 50 48 45 44 42 40 37 35 34 35 35 35 33 33 36 38 39 38 37 37 38 33 33 35 37 31 28 26 29 32 31 31 28 22 19 19 17 18 17 14 14 14 14 14 15 14 13 13 13 13 13 14 15 16 17 19 21 22 22 22 25 25 24 23 25 26 25
nan nan nan nan nan nan nan nan nan nan nan nan nan nan nan nan nan 54 52 51 49 46 44 42 42 43 41 39 39 39 38 37 36 37 39 40 42 43 42 39 37 35 33 33 33 30 29 29 31 25 21 20 20 18 15 15 16 17 16 16 16 15 14 14 14 13 13 14 14 15 16 18 17 18 19 19 19 23 26 26 25 25 25 26 25
nan nan nan nan nan nan nan nan nan nan nan nan nan nan nan nan nan nan nan nan nan 50 48 43 41 42 42 39 41 43 42 39 38 43 47 48 45 44 43 40 36 33 31 36 38 36 31 25 21 19 17 11 8 8 8 7 8 8 8 11 13 14 16 16 14 14 14 15 15 16 16 17 16 17 18 18 20 22 26 26 26 25 26 26 25
nan nan nan nan nan nan nan nan nan nan nan nan nan nan nan nan nan nan nan nan nan nan 49 47 44 44 42 41 42 41 41 41 43 41 37 37 38 39 39 36 33 33 35 36 36 33 30 26 23 20 15 12 7 2 2 5 6 7 6 7 9 11 14 15 15 15 16 15 15 16 16 17 16 18 18 19 20 22 24 27 26 27 27 27 26
nan nan nan nan nan nan nan nan nan nan nan nan nan nan nan nan nan nan nan nan nan nan nan 44 42 41 42 42 42 38 36 36 36 35 33 31 32 34 37 34 33 31 33 44 39 31 29 28 26 22 17 15 13 7 4 5 7 8 8 10 11 11 11 12 16 17 17 17 18 17 17 17 17 18 19 20 21 22 24 27 27 27 28 28 28
nan nan nan nan nan nan nan nan nan nan nan nan nan nan nan nan nan nan nan nan nan nan nan nan 45 43 40 39 42 44 39 36 34 33 32 33 33 33 33 35 34 34 37 40 34 28 28 27 25 21 17 15 12 11 8 6 9 11 11 12 13 14 15 13 16 17 18 18 18 19 20 19 20 20 21 22 23 24 25 27 28 29 29 30 29
nan nan nan nan nan nan nan nan nan nan nan nan nan nan nan nan nan nan 76 nan nan nan nan nan nan nan 45 43 40 39 40 41 39 37 34 32 33 33 34 35 40 46 47 38 29 24 22 19 18 19 18 12 7 8 8 8 10 12 14 15 14 16 16 18 22 20 19 19 20 20 21 22 23 23 24 24 25 24 26 27 28 29 30 30 31
nan nan nan nan nan nan nan nan nan nan nan nan nan nan nan nan nan nan nan nan nan nan nan nan nan nan nan 48 45 43 42 41 39 37 36 37 39 40 40 41 44 45 39 30 24 20 21 20 21 24 23 17 13 14 14 15 17 15 16 19 19 19 20 23 25 25 23 23 22 21 22 22 24 25 24 25 25 26 26 27 28 29 30 31 31
nan nan nan nan nan nan nan nan nan nan nan nan nan nan nan nan nan nan nan nan nan nan nan nan 59 nan nan nan nan 49 47 45 45 44 42 40 42 44 46 45 46 49 41 33 30 28 28 25 23 24 25 20 17 18 21 21 24 21 20 19 20 20 22 23 23 24 25 25 25 24 24 24 23 24 25 25 25 26 26 26 27 29 30 31 32
nan nan nan nan nan nan nan nan nan nan nan nan nan nan nan nan nan nan nan nan nan nan nan nan nan nan nan nan nan nan nan 59 58 54 50 49 48 51 49 46 46 47 46 45 44 41 36 28 26 26 25 21 21 23 24 26 27 26 24 22 23 24 24 25 26 26 26 24 24 24 25 26 25 25 24 25 26 26 25 26 29 31 32 32 33
nan nan nan nan nan nan nan nan nan nan nan nan nan nan nan nan nan nan nan nan nan nan nan nan nan nan nan nan nan nan nan 65 61 nan nan 55 52 50 47 47 47 48 50 51 50 47 41 33 30 29 28 25 25 27 28 28 29 29 28 27 26 25 25 26 27 28 27 26 25 27 28 27 26 26 26 25 26 27 27 28 29 32 33 33 35
nan nan nan nan nan nan nan nan nan nan nan nan nan nan nan nan nan nan nan nan nan nan nan nan nan nan nan nan nan nan nan nan 58 58 nan nan 60 53 50 49 49 48 49 50 50 48 44 38 34 33 33 32 30 30 31 32 31 31 31 31 30 28 27 27 28 29 28 25 25 27 28 27 27 27 29 28 27 28 28 29 28 29 33 35 36
nan nan nan nan nan nan nan nan nan nan nan nan nan nan nan nan nan nan nan nan nan nan nan nan nan nan nan nan nan nan nan nan nan 63 nan nan nan 56 53 51 50 50 49 48 48 49 47 43 39 38 39 38 35 34 34 34 35 37 37 34 33 31 29 28 26 26 24 24 26 27 28 27 27 27 28 25 25 26 27 29 31 31 31 33 36
nan nan nan nan nan nan nan nan nan nan nan nan nan nan nan nan nan nan nan nan nan nan nan nan nan nan nan nan nan nan nan nan nan nan nan nan nan nan nan 54 53 52 51 51 51 50 48 45 43 42 41 41 41 40 38 36 36 38 41 40 36 35 33 30 28 26 25 26 27 29 30 30 29 29 30 29 28 27 30 32 33 33 33 33 33
nan nan nan nan nan nan nan nan nan nan nan nan nan nan nan nan nan nan nan nan nan nan nan nan nan nan nan nan nan nan nan nan nan nan nan nan nan nan nan nan 55 55 54 53 52 52 51 48 48 48 47 45 44 43 42 41 39 38 37 39 38 36 36 32 29 27 27 27 29 32 33 32 32 33 32 32 34 34 34 36 36 36 36 36 35
nan nan nan nan nan nan nan nan nan nan nan nan nan nan nan nan nan nan nan nan nan nan nan nan nan nan nan nan nan nan nan nan nan nan nan nan nan nan nan nan nan nan nan 63 62 62 61 58 54 51 50 50 49 48 49 47 45 43 43 42 36 36 35 32 30 28 28 29 31 35 36 36 35 37 35 35 33 34 34 36 36 34 35 36 37
nan nan nan nan nan nan nan nan nan nan nan nan nan nan nan nan nan nan nan nan nan nan nan nan nan nan nan nan nan nan nan nan nan nan nan nan nan nan nan nan nan nan nan 62 61 61 61 60 58 58 60 61 60 59 58 55 52 47 42 44 42 38 36 35 32 30 28 32 36 39 37 34 35 35 33 34 33 33 33 34 37 35 35 35 36
nan nan nan nan nan nan nan nan nan nan nan nan nan nan nan nan nan nan nan nan nan nan nan nan nan nan nan nan nan nan nan nan nan nan nan nan nan nan nan nan nan nan nan 62 62 62 61 61 60 60 61 61 60 59 58 59 58 56 54 52 49 46 42 38 35 32 31 34 39 36 35 37 38 38 35 33 31 30 31 31 32 33 33 33 35
nan nan nan nan nan nan nan nan nan nan nan nan nan nan nan nan nan nan nan nan nan nan nan nan nan nan nan nan nan nan nan nan nan nan nan nan nan nan nan nan nan nan nan nan nan 66 66 64 63 63 63 62 61 59 57 57 56 55 54 52 51 49 48 47 48 46 44 41 37 37 37 37 37 37 34 30 28 30 31 31 30 32 33 34 36
nan nan nan nan nan nan nan nan nan nan nan nan nan nan nan nan nan nan nan nan nan nan nan nan nan nan nan nan nan nan nan nan nan nan nan nan nan nan nan nan nan nan nan nan nan nan nan 68 67 65 64 62 61 59 58 57 56 54 52 51 50 49 47 49 50 47 45 45 44 43 41 40 36 34 30 28 28 30 32 33 30 32 35 35 36
nan nan nan nan nan nan nan nan nan nan nan nan nan nan nan nan nan nan nan nan nan nan nan nan nan nan nan nan nan nan nan nan nan nan nan nan nan nan nan nan nan nan nan nan nan nan nan nan nan 67 65 63 62 61 60 59 57 54 52 50 50 48 49 49 46 44 44 45 44 44 42 42 39 38 34 34 34 33 31 30 31 33 36 36 36
nan nan nan nan nan nan nan nan nan nan nan nan nan nan nan nan nan nan nan nan nan nan nan nan nan nan nan nan nan nan nan nan nan nan nan nan nan nan nan nan nan nan nan nan nan nan nan nan nan nan nan 65 65 64 62 59 57 54 51 49 49 50 48 46 45 44 45 45 45 44 42 41 41 39 37 36 36 36 35 33 31 32 34 35 35
nan nan nan nan nan nan nan nan nan nan nan nan nan nan nan nan nan nan nan nan nan nan nan nan nan nan nan nan nan nan nan nan nan nan nan nan nan nan nan nan nan nan nan nan nan nan nan nan nan nan nan 68 68 66 62 59 57 54 51 50 50 48 45 44 46 46 44 45 46 46 46 44 42 40 38 37 35 36 36 35 34 33 34 34 34
nan nan nan nan nan nan nan nan nan nan nan nan nan nan nan nan nan nan nan nan nan nan nan nan nan nan nan nan nan nan nan nan nan nan nan nan nan nan nan nan nan nan nan nan nan nan nan nan nan nan 74 74 72 68 63 59 57 55 53 51 48 46 45 45 44 42 45 49 48 49 48 46 43 42 41 39 37 37 35 34 34 34 34 34 35
nan nan nan nan nan nan nan nan nan nan nan nan nan nan nan nan nan nan nan nan nan nan nan nan nan nan nan nan nan nan nan nan nan nan nan nan nan nan nan nan nan nan nan nan nan nan nan nan nan nan nan 78 75 70 64 60 57 55 50 48 48 46 44 45 48 47 45 47 49 49 50 49 48 47 45 45 44 41 39 37 37 38 39 40 40
Wind_Direction
247 242 249 251 258 266 263 260 261 248 241 236 220 221 224 220 232 231 241 227 236 253 251 252 259 262 250 259 263 274 281 285 277 280 284 277 260 252 249 274 263 248 246 240 239 252 269 276 268 261 242 243 244 240 238 265 263 243 230 253 248 248 244 234 217 216 213 217 222 215 221 222 224 240 237 244 253 272 267 266 267 291 309 310 308
243 245 243 244 259 264 266 265 263 255 257 249 240 231 224 231 228 233 245 245 228 247 261 255 252 259 258 243 236 259 277 276 286 282 284 284 282 269 258 261 268 256 250 256 252 240 263 270 274 282 284 272 250 254 241 257 291 281 278 271 259 266 266 246 235 224 219 227 232 230 224 250 249 258 249 246 252 257 267 267 285 292 292 282 310
250 247 242 248 254 259 263 269 267 272 270 256 257 246 240 236 238 238 237 246 248 230 255 255 251 254 245 250 253 244 258 289 288 276 278 290 287 262 264 274 267 261 264 257 257 259 262 275 293 289 280 291 283 247 238 226 222 270 289 279 270 263 275 274 254 243 233 232 235 238 249 248 245 245 252 262 265 277 283 292 288 285 281 293 307
246 239 246 252 256 258 262 264 277 279 276 265 264 259 249 245 243 244 244 231 248 248 237 250 255 253 258 261 278 277 288 292 299 302 298 296 295 284 257 254 258 259 258 258 266 263 271 280 294 306 301 291 282 269 255 245 244 223 228 241 246 246 236 258 276 266 247 240 245 239 239 242 248 253 269 278 279 278 275 270 289 295 291 291 290
234 246 251 251 251 253 260 262 271 275 277 271 276 271 262 256 251 248 247 240 236 248 246 237 242 257 265 283 294 304 315 316 313 319 311 304 301 292 282 266 250 245 243 243 240 258 277 292 298 305 300 299 295 288 273 276 255 251 258 257 256 258 260 261 267 274 266 258 255 258 254 260 265 265 273 269 267 272 284 293 284 286 290 288 280
220 222 238 240 245 252 250 256 260 268 268 268 275 275 271 263 263 258 248 247 241 240 251 246 242 254 262 275 294 303 308 311 316 323 325 319 309 299 286 279 273 262 255 250 244 245 260 277 276 295 306 314 312 300 285 288 273 261 257 257 260 262 266 270 267 268 272 268 254 247 262 261 263 273 261 261 269 262 266 276 283 289 297 296 293
217 241 251 240 245 244 251 250 250 256 258 256 258 268 271 273 269 268 263 252 251 246 249 253 250 255 263 272 290 302 310 317 307 317 321 319 315 308 303 296 286 274 269 265 259 260 265 267 277 294 307 319 329 316 306 297 280 282 268 254 247 253 262 263 268 272 274 271 265 268 261 260 270 274 281 281 278 277 271 273 276 282 283 291 300
218 205 231 248 241 243 236 242 248 247 251 251 249 253 264 267 268 263 264 271 263 260 nan 256 258 258 266 275 281 287 299 307 308 309 314 316 315 315 310 299 294 285 276 274 267 259 262 267 276 299 317 319 326 317 307 291 280 280 278 271 265 265 259 260 268 273 275 274 275 265 262 254 256 249 246 267 287 294 299 291 289 286 288 291 299
218 217 225 217 236 245 242 245 247 249 251 253 255 252 249 254 258 263 263 266 268 264 257 252 261 266 269 272 280 285 293 300 297 303 306 313 311 317 316 313 301 285 284 281 277 267 260 265 272 276 295 313 333 299 279 266 270 277 268 267 272 269 265 258 261 263 261 257 262 257 251 267 266 264 267 272 294 295 277 278 274 281 291 300 297
220 227 222 215 214 226 238 238 243 250 254 255 257 258 254 252 257 264 266 266 262 263 259 257 259 271 274 278 280 282 284 284 292 309 307 300 309 308 306 305 304 293 282 274 276 283 279 264 265 294 296 307 314 312 301 243 234 223 249 268 270 261 260 260 256 259 259 262 267 269 275 283 289 304 311 307 291 291 294 294 295 295 295 293 295
219 221 224 219 206 217 227 235 240 246 252 254 258 259 259 258 256 253 258 258 257 261 263 265 266 265 278 281 286 285 285 285 299 304 306 309 304 303 300 297 302 302 303 291 281 279 281 288 276 276 284 286 294 306 303 305 282 253 205 218 228 241 259 266 258 247 253 260 258 261 266 262 270 256 255 257 254 248 254 265 270 277 293 301 307
218 223 223 216 215 202 207 224 238 245 249 253 256 258 258 258 255 258 261 266 259 261 268 268 262 266 267 278 288 287 286 292 nan 302 305 307 301 294 299 299 300 306 310 308 301 296 294 288 288 283 290 291 287 286 293 303 303 293 279 249 241 232 236 240 243 253 262 256 254 259 254 261 263 274 278 284 274 256 250 255 269 285 299 317 325
220 223 227 224 216 213 200 207 230 240 249 254 252 254 256 256 258 258 261 262 260 260 259 263 268 266 265 264 275 284 284 292 291 nan 303 305 308 298 290 296 304 308 311 317 314 304 300 298 291 282 278 307 300 298 288 287 292 311 310 307 282 261 241 242 263 256 236 240 257 262 272 264 267 273 278 268 258 268 268 278 286 297 313 331 336
222 221 226 236 234 221 213 202 207 226 235 241 248 252 254 255 254 254 251 251 253 255 261 262 260 261 262 260 256 258 262 279 291 293 297 301 304 296 293 296 301 306 309 316 313 319 315 306 298 292 285 276 289 303 293 290 284 282 281 278 280 294 304 324 315 298 281 264 257 263 271 277 277 277 273 270 278 285 290 295 299 306 321 333 332
227 224 219 220 229 233 226 218 207 206 216 229 237 242 245 246 247 244 245 248 249 248 247 251 253 255 259 260 255 254 253 265 283 291 292 295 298 289 290 296 nan nan 303 309 299 307 300 310 306 303 289 283 273 289 292 289 287 286 291 296 294 294 297 305 309 307 308 316 321 316 297 295 294 293 285 284 292 295 299 302 298 308 321 322 325
228 228 225 221 222 227 230 229 226 222 218 213 219 230 232 231 230 229 231 230 231 238 247 242 242 247 251 253 251 250 252 266 273 281 286 287 289 273 272 281 282 278 nan 289 290 286 292 296 292 294 290 287 292 293 290 288 291 294 292 289 288 294 300 309 313 314 323 327 329 334 328 331 329 306 294 289 291 300 304 304 307 316 324 323 324
nan 224 222 221 223 225 227 228 226 222 228 233 231 226 224 225 225 231 227 222 219 219 220 224 227 228 233 242 243 241 244 257 271 275 278 281 275 266 269 270 268 267 266 271 278 291 298 297 288 284 291 285 291 299 295 295 291 297 292 290 285 288 292 297 315 328 331 342 344 351 346 333 308 289 290 285 288 285 288 292 303 308 313 317 318
nan nan nan nan 221 222 224 225 224 223 223 225 232 242 239 245 250 252 250 249 242 231 238 233 227 218 214 218 229 236 234 247 267 271 276 278 276 269 267 267 266 264 260 264 269 274 282 302 294 290 289 282 292 296 299 293 291 294 290 289 292 296 294 289 285 306 334 336 347 349 343 337 329 317 303 299 296 290 303 311 313 307 315 320 321
nan nan nan nan nan 226 228 226 224 226 227 230 236 243 241 240 238 241 249 256 259 260 263 266 267 265 253 235 221 211 222 235 259 265 272 277 274 264 265 262 262 262 260 257 259 259 259 269 290 286 284 279 287 291 299 293 287 290 290 285 290 302 296 290 293 292 297 306 306 313 304 304 301 298 302 315 310 304 304 312 309 309 313 317 315
nan nan nan nan nan nan nan 230 230 230 233 237 240 241 241 236 233 231 236 243 244 242 242 247 256 262 270 270 264 253 238 224 229 245 265 269 275 263 259 259 257 257 255 252 251 255 256 255 269 291 297 286 283 288 294 299 293 289 287 289 292 297 285 289 291 289 284 296 308 311 315 312 311 307 303 303 304 305 307 309 310 309 309 311 311
nan nan nan nan nan nan nan nan nan 229 233 238 241 241 240 241 241 242 240 238 240 245 242 248 249 247 250 252 255 262 267 268 260 250 239 258 272 265 253 255 252 247 245 245 242 242 249 255 254 278 299 296 287 287 290 297 298 290 295 297 297 276 267 279 287 294 287 289 291 300 303 303 302 301 299 297 299 300 303 307 309 310 309 307 305
nan nan nan nan nan nan nan nan nan nan nan 240 240 242 243 245 249 248 249 248 243 238 238 241 244 247 253 258 260 254 258 268 267 279 283 273 263 274 259 253 251 243 240 237 236 235 236 242 247 261 290 301 298 289 292 292 303 289 306 312 297 277 267 274 274 279 289 296 300 300 298 297 297 297 296 294 294 295 296 299 305 309 307 304 298
nan nan nan nan nan nan nan nan nan nan nan nan 241 242 245 249 248 247 249 249 247 243 242 242 244 245 245 253 258 260 259 260 263 260 276 287 292 284 280 264 248 241 235 231 231 229 229 227 231 254 278 291 295 295 292 295 289 291 322 312 298 285 271 279 282 287 289 290 291 292 293 290 287 286 285 286 286 285 288 289 297 301 298 297 296
nan nan nan nan nan nan nan nan nan nan nan nan nan 240 245 249 249 246 243 243 245 247 248 248 247 245 247 249 254 257 259 261 262 256 258 279 286 292 294 290 270 249 237 224 223 221 226 222 228 236 270 282 288 292 294 293 291 316 317 315 301 288 281 292 297 298 292 290 284 282 282 282 284 284 283 282 282 279 285 287 284 293 298 296 295
nan nan nan nan nan nan nan nan nan nan nan nan nan 240 240 244 249 251 248 247 248 247 248 250 249 249 250 251 252 253 254 255 255 259 255 247 260 269 274 275 278 273 250 234 223 219 212 208 213 220 259 270 280 286 288 303 322 320 320 316 303 286 294 301 302 293 294 293 292 289 287 287 285 282 278 277 280 283 283 285 289 286 288 298 299
nan nan nan nan nan nan nan nan nan nan nan nan nan nan 244 243 245 250 252 249 247 248 249 249 250 251 250 248 248 249 250 247 250 251 248 237 237 245 258 264 265 261 261 244 215 199 195 195 211 222 238 250 255 257 262 275 304 321 323 311 291 296 296 297 292 295 297 296 297 299 296 290 291 291 289 290 293 297 295 298 301 303 305 305 303
nan nan nan nan nan nan nan nan nan nan nan nan nan nan nan 246 246 247 252 253 251 249 246 247 249 248 248 248 249 250 248 248 250 250 251 247 243 239 244 246 250 243 240 242 230 216 196 200 205 203 211 247 259 264 275 282 289 289 280 280 282 287 291 294 300 301 302 300 297 297 295 294 294 294 299 302 306 305 305 305 309 313 312 312 314
nan nan nan nan nan nan nan nan nan nan nan nan nan nan nan nan nan 247 248 250 251 250 249 248 250 249 244 243 245 248 249 249 249 249 248 247 245 244 245 245 247 251 254 252 253 245 236 211 198 205 220 236 246 252 264 273 279 279 278 280 283 287 293 299 299 297 296 295 293 291 289 291 297 301 303 306 310 307 306 308 312 315 317 316 320
nan nan nan nan nan nan nan nan nan nan nan nan nan nan nan nan nan nan nan nan nan 251 251 249 252 255 256 254 251 247 246 245 246 250 250 252 248 244 243 243 246 252 257 263 259 261 257 244 231 217 207 205 226 252 266 268 271 279 293 289 287 291 294 297 303 305 299 293 296 295 298 300 304 303 305 308 307 307 303 308 312 315 315 320 325
nan nan nan nan nan nan nan nan nan nan nan nan nan nan nan nan nan nan nan nan nan nan 251 251 252 252 254 256 257 253 250 248 245 243 246 250 253 255 251 248 242 241 256 271 261 256 255 246 239 227 211 187 175 210 269 285 283 282 283 295 290 289 293 298 301 302 299 301 297 299 301 303 306 308 309 313 310 311 310 313 315 318 319 322 324
nan nan nan nan nan nan nan nan nan nan nan nan nan nan nan nan nan nan nan nan nan nan nan 244 245 250 253 251 254 255 250 245 242 241 241 244 244 247 256 257 251 247 250 253 253 251 250 252 244 233 213 194 188 173 242 277 292 293 291 292 296 295 292 296 298 297 300 302 301 301 302 304 307 306 309 310 311 311 311 311 315 316 321 322 323
nan nan nan nan nan nan nan nan nan nan nan nan nan nan nan nan nan nan nan nan nan nan nan nan 246 246 249 253 252 250 254 256 255 250 246 244 246 248 253 260 262 258 254 263 257 255 252 250 248 245 237 217 193 196 211 245 270 281 284 291 295 296 298 298 291 292 294 297 299 301 303 305 304 304 306 306 305 309 310 311 314 317 318 320 321
nan nan nan nan nan nan nan nan nan nan nan nan nan nan nan nan nan nan 248 nan nan nan nan nan nan nan 246 246 255 258 252 250 249 249 248 249 250 252 251 253 260 265 264 259 250 250 252 259 269 274 269 264 269 259 239 244 264 270 277 279 282 285 289 287 287 288 291 292 295 299 302 305 305 304 304 306 305 310 309 312 313 312 314 317 316
nan nan nan nan nan nan nan nan nan nan nan nan nan nan nan nan nan nan nan nan nan nan nan nan nan nan nan 246 246 252 258 258 255 254 253 251 249 247 250 252 261 275 272 256 245 246 262 273 279 282 287 294 294 288 282 271 267 267 269 271 271 273 278 281 285 290 294 295 297 299 300 304 303 307 309 309 309 308 310 311 311 312 314 316 317
nan nan nan nan nan nan nan nan nan nan nan nan nan nan nan nan nan nan nan nan nan nan nan nan 254 nan nan nan nan 243 244 247 251 253 252 252 254 256 256 255 256 254 250 242 247 266 281 284 281 281 283 289 288 280 275 275 269 269 274 274 276 278 278 281 285 288 292 296 299 300 301 305 308 308 308 310 308 307 309 309 313 313 316 316 317
nan nan nan nan nan nan nan nan nan nan nan nan nan nan nan nan nan nan nan nan nan nan nan nan nan nan nan nan nan nan nan 245 246 247 248 248 249 261 257 255 253 255 254 255 262 274 280 278 271 270 268 268 271 272 271 269 270 269 269 274 274 276 277 280 283 285 288 293 297 299 298 300 302 302 304 304 306 307 306 308 309 310 313 315 313
nan nan nan nan nan nan nan nan nan nan nan nan nan nan nan nan nan nan nan nan nan nan nan nan nan nan nan nan nan nan nan 242 242 nan nan 249 254 257 253 253 252 253 254 256 263 269 274 274 272 268 267 266 266 265 266 268 268 269 269 270 271 273 276 276 279 279 284 289 292 290 293 295 295 296 297 296 295 298 304 305 305 304 304 307 305
nan nan nan nan nan nan nan nan nan nan nan nan nan nan nan nan nan nan nan nan nan nan nan nan nan nan nan nan nan nan nan nan 244 247 nan nan 253 253 253 253 254 255 255 256 259 264 268 269 268 267 267 268 266 264 265 267 267 268 269 269 270 271 273 272 275 277 279 284 287 288 288 291 291 290 287 289 291 293 295 297 300 300 300 302 298
nan nan nan nan nan nan nan nan nan nan nan nan nan nan nan nan nan nan nan nan nan nan nan nan nan nan nan nan nan nan nan nan nan 248 nan nan nan 251 253 254 255 257 259 259 257 256 258 261 261 262 263 263 262 263 264 265 266 267 268 269 269 270 273 276 279 280 285 287 286 286 288 289 290 289 288 288 289 291 294 293 292 293 295 295 297
nan nan nan nan nan nan nan nan nan nan nan nan nan nan nan nan nan nan nan nan nan nan nan nan nan nan nan nan nan nan nan nan nan nan nan nan nan nan nan 248 250 252 253 255 256 257 258 259 259 260 261 261 262 261 261 263 266 269 268 267 269 268 270 274 277 281 284 284 284 285 286 287 288 287 287 289 289 289 289 289 288 288 289 293 295
nan nan nan nan nan nan nan nan nan nan nan nan nan nan nan nan nan nan nan nan nan nan nan nan nan nan nan nan nan nan nan nan nan nan nan nan nan nan nan nan 247 247 248 250 252 253 253 255 257 259 258 258 259 260 260 261 264 267 270 269 267 268 270 273 277 280 281 282 284 283 280 280 283 284 286 287 287 287 287 287 289 292 293 293 295
nan nan nan nan nan nan nan nan nan nan nan nan nan nan nan nan nan nan nan nan nan nan nan nan nan nan nan nan nan nan nan nan nan nan nan nan nan nan nan nan nan nan nan 246 245 246 246 246 248 252 255 257 258 259 259 257 256 257 258 261 264 265 268 270 276 279 281 280 277 273 270 274 277 279 281 281 285 286 288 289 291 292 295 297 297
nan nan nan nan nan nan nan nan nan nan nan nan nan nan nan nan nan nan nan nan nan nan nan nan nan nan nan nan nan nan nan nan nan nan nan nan nan nan nan nan nan nan nan 243 245 246 245 245 246 248 250 250 251 251 251 252 254 257 259 264 265 264 263 264 267 273 275 269 263 266 273 278 279 279 280 282 285 287 288 288 288 292 295 297 297
nan nan nan nan nan nan nan nan nan nan nan nan nan nan nan nan nan nan nan nan nan nan nan nan nan nan nan nan nan nan nan nan nan nan nan nan nan nan nan nan nan nan nan 246 247 246 245 245 246 247 248 249 250 250 251 252 253 253 253 254 256 259 261 261 263 265 264 262 268 271 274 279 282 281 280 279 281 284 286 290 293 296 298 300 301
nan nan nan nan nan nan nan nan nan nan nan nan nan nan nan nan nan nan nan nan nan nan nan nan nan nan nan nan nan nan nan nan nan nan nan nan nan nan nan nan nan nan nan nan nan 247 246 246 247 247 246 248 249 250 250 251 252 254 256 256 257 257 255 252 253 253 253 256 262 270 275 275 276 279 282 284 285 283 281 283 289 293 294 294 297
nan nan nan nan nan nan nan nan nan nan nan nan nan nan nan nan nan nan nan nan nan nan nan nan nan nan nan nan nan nan nan nan nan nan nan nan nan nan nan nan nan nan nan nan nan nan nan 246 246 245 245 247 248 249 250 250 251 253 254 256 256 254 252 253 255 256 259 259 259 261 265 269 272 277 281 283 283 283 284 287 288 289 292 296 298
nan nan nan nan nan nan nan nan nan nan nan nan nan nan nan nan nan nan nan nan nan nan nan nan nan nan nan nan nan nan nan nan nan nan nan nan nan nan nan nan nan nan nan nan nan nan nan nan nan 245 245 246 247 248 249 250 250 251 251 251 252 251 252 253 254 257 259 261 262 263 265 265 266 265 270 276 279 280 282 285 288 291 292 297 301
nan nan nan nan nan nan nan nan nan nan nan nan nan nan nan nan nan nan nan nan nan nan nan nan nan nan nan nan nan nan nan nan nan nan nan nan nan nan nan nan nan nan nan nan nan nan nan nan nan nan nan 245 246 247 248 248 248 248 248 249 251 252 249 250 256 259 262 263 265 267 268 269 269 268 267 268 273 277 280 282 285 288 293 297 301
nan nan nan nan nan nan nan nan nan nan nan nan nan nan nan nan nan nan nan nan nan nan nan nan nan nan nan nan nan nan nan nan nan nan nan nan nan nan nan nan nan nan nan nan nan nan nan nan nan nan nan 244 245 245 246 246 245 246 247 249 249 243 244 250 258 259 257 262 266 268 270 270 270 271 271 271 272 275 277 279 282 283 285 289 295
nan nan nan nan nan nan nan nan nan nan nan nan nan nan nan nan nan nan nan nan nan nan nan nan nan nan nan nan nan nan nan nan nan nan nan nan nan nan nan nan nan nan nan nan nan nan nan nan nan nan 242 243 243 243 243 243 244 244 246 245 237 236 240 242 246 250 257 261 261 263 265 266 267 269 270 271 271 272 274 278 282 284 285 288 291
nan nan nan nan nan nan nan nan nan nan nan nan nan nan nan nan nan nan nan nan nan nan nan nan nan nan nan nan nan nan nan nan nan nan nan nan nan nan nan nan nan nan nan nan nan nan nan nan nan nan nan 243 241 240 240 241 242 241 237 235 235 235 238 245 251 250 251 256 260 262 264 266 266 267 267 268 268 269 271 271 274 278 283 287 289